Location: Bacea
(45.9500°N, 22.6667°E)
Time: 11:00:29
(UTC+00:00)

SL-08 RB Rocket - Pass Details

Date: 16 October 2021
Orbit: 646 x 683 km, 97.8° (Epoch: 02 December)

Event Time Altitude Azimuth Distance (km) Brightness Sun altitude
Rises 17:15:29 0° 170° (S) 2,964 6.9 -17.1°
Reaches altitude 10° 17:17:41 10° 173° (S) 2,063 6.1 -17.5°
Maximum altitude 17:22:11 73° 257° (WSW) 695 3.9 -18.3°
Drops below altitude 10° 17:26:47 10° 343° (NNW) 2,102 6.6 -19.0°
Sets 17:29:02 0° 346° (NNW) 3,027 7.4 -19.4°
